Location: Unspecified
(33.9239°N, 118.0544°W)
Time: 23:01:49
(UTC-07:00)

Cosmos 2058 - Visible Passes

Search period start: 28 April 2016 00:00
Search period end: 08 May 2016 00:00
Orbit: 566 x 585 km, 82.5° (Epoch: 28 April)

Date Brightness Start Highest point End Pass type
(mag) Time Alt. Az. Time Alt. Az. Time Alt. Az.
28 Apr 5.6 04:57:47 10° SE 05:00:56 21° E 05:04:06 10° NE visible
29 Apr 5.1 05:00:57 10° SSE 05:04:34 29° E 05:08:12 10° NNE visible
30 Apr 4.4 05:04:18 10° SSE 05:08:13 40° E 05:12:10 10° NNE visible
01 May 3.7 05:07:47 10° S 05:11:54 56° E 05:16:03 10° NNE visible
02 May 3.1 05:11:24 10° S 05:15:35 81° E 05:19:49 10° N visible
03 May 2.9 05:15:07 10° SSW 05:19:18 72° W 05:23:31 10° N visible
04 May 3.2 05:18:57 10° SSW 05:23:02 50° W 05:27:09 10° N visible
05 May 5.8 03:48:12 10° ESE 03:50:13 13° E 03:52:15 10° ENE visible
05 May 3.6 05:22:54 10° SSW 05:26:46 36° W 05:30:41 10° NNW visible
06 May 5.5 03:50:56 10° SE 03:53:50 18° E 03:56:44 10° NE visible
06 May 4.0 05:26:59 10° SW 05:30:32 26° WNW 05:34:07 10° NNW visible
07 May 5.0 03:54:01 10° SE 03:57:27 25° E 04:00:54 10° NE visible
